Regional Weather Roundup
Issued by NWS

Home | Current Version | Previous Version | Text Only | Print | Product List | Glossary Off
Versions: 1 2 3 4 5 6 7 8 9 10 11 12 13 14 15 16 17 18 19 20 21 22 23 24 25 26 27 28 29 30 31 32 33 34 35 36 37 38 39 40 41 42 43 44 45 46 47 48 49 50

000
ASUS43 KIND 241259
RWRIN

WEATHER ROUNDUP FOR INDIANA
NATIONAL WEATHER SERVICE INDIANAPOLIS IN
800 AM EST FRI FEB 24 2017

NOTE: "FAIR" INDICATES FEW OR NO CLOUDS BELOW 12,000 FEET WITH NO
SIGNIFICANT WEATHER AND/OR OBSTRUCTIONS TO VISIBILITY.

* - STATION DOES NOT REPORT WEATHER SUCH AS PRECIPITATION OR FOG.

+ - STATION NOT QUALITY CONTROLLED BY THE NATIONAL WEATHER SERVICE.
    USE DATA WITH CAUTION...ESPECIALLY DEWPOINT AND RELATIVE
    HUMIDITY OBSERVATIONS.

INZ001>003-010>013-019-020-241400-
NORTHWEST INDIANA

CITY           SKY/WX    TMP DP  RH WIND       PRES   REMARKS
GARY /AIRPORT/ PTCLDY    45  45 100 VRB6      29.40F FOG
KNOX *+        CLOUDY    57  39  51 S15       29.50S
MICHIGAN CITY+ RAIN      57  57 100 S7        29.40F
RENSSELAER +   CLOUDY    59  55  88 S16G22    29.46F

$$

LMZ046-743>745-241400-
SOUTHERN LAKE MICHIGAN

STATION/POSITION TIME  TEMP    WIND        PRES    WAVE
                       AIR SEA DIR/SP/G            HT
                 (UTC) (F)     (DEG/KT/KT) (MB)    (FT)
BURNS HARBOR     1240   58     190/  5/ 21  996.6F
MICHIGAN CITY    1230   59     170/ 18/ 26   N/A

$$

INZ004-005-014>016-021>024-241400-
NORTH CENTRAL INDIANA

CITY           SKY/WX    TMP DP  RH WIND       PRES   REMARKS
ELKHART        CLOUDY    54  50  87 S8        29.52F
GOSHEN         MOCLDY    54  50  86 S13       29.53S
SOUTH BEND     LGT RAIN  58  54  86 S16G23    29.52R

$$

INZ006>009-017-018-025>027-241400-
NORTHEAST INDIANA

CITY           SKY/WX    TMP DP  RH WIND       PRES   REMARKS
ANGOLA *+      CLOUDY    48  48 100 SE8       29.55F
FORT WAYNE     CLOUDY    57  52  83 S13       29.57F
KENDALLVILLE + CLOUDY    49  49 100 SE13      29.56F FOG

$$

INZ028-029-035-036-043>045-051>053-241400-
WEST CENTRAL INDIANA

CITY           SKY/WX    TMP DP  RH WIND       PRES   REMARKS
LAFAYETTE      CLOUDY    62  56  80 SW10      29.53S
TERRE HAUTE    CLEAR     62  54  74 S14       29.56F

$$

INZ030>032-037>040-046>048-054>057-064-065-241400-
CENTRAL INDIANA

CITY           SKY/WX    TMP DP  RH WIND       PRES   REMARKS
COLUMBUS       CLEAR     57  57 100 S12G18    29.64S
GREENWOOD *+   CLEAR     59  55  87 S7        29.62R
INDIANAPOLIS   PTCLDY    60  54  80 S14       29.60R
-EAGLE CREEK   PTCLDY    60  53  77 S6        29.59R
KOKOMO +       PTCLDY    56  53  90 S14       29.57S
MT COMFORT *+  CLEAR     57  54  88 S12G18    29.61S
SHELBYVILLE    CLEAR     60  53  77 S16       29.62S

$$

INZ033-034-041-042-049-050-058-059-241400-
EAST CENTRAL INDIANA

CITY           SKY/WX    TMP DP  RH WIND       PRES   REMARKS
MUNCIE         CLEAR     60  54  80 S16G23    29.60S

$$

INZ060-061-067>069-081>083-085>088-241400-
SOUTHWEST INDIANA

CITY           SKY/WX    TMP DP  RH WIND       PRES   REMARKS
EVANSVILLE     CLEAR     63  55  75 S12G21    29.62S
HUNTINGBURG *+ CLEAR     62  56  80 S14G23    29.63S

$$

INZ062-063-066-070>080-084-089>092-241400-
SOUTH CENTRAL AND SOUTHEAST INDIANA

CITY           SKY/WX    TMP DP  RH WIND       PRES   REMARKS
BLOOMINGTON    CLEAR     63  54  72 SW15G23   29.61S
MADISON *+     MOCLDY    59  52  77 S8        29.70S
SEYMOUR +      PTCLDY    63  55  77 S13       29.65S

$$




USA.gov is the U.S. government's official web portal to all federal, state and local government web resources and services.